When you browse on this site, cookies collect data to enhance your experience and personalize the content and advertising you see.
Visit our Privacy Policy to learn more. By continuing to use the site, you agree to this use of cookies and data.
  • In Czech Republic
  • List of Countries
  • For 7 days
  • Water Temperature
  • Satellite Maps
  • Weather Map
  • Weather Widgets
  • user-avatar
    Login

    Hourly Weather Shaki

    Today, 23 March, Saturday

    Time Temperature Precipitation Wind Pressure Humidity
    00:00 +7°C° 0 mm 2 mps 738 mmHg 42%
    01:00 +6°C° 0 mm 2 mps 738 mmHg 43%
    02:00 +6°C° 0 mm 2 mps 738 mmHg 44%
    03:00 +6°C° 0 mm 1 mps 737 mmHg 48%
    04:00 +6°C° 0 mm 1 mps 737 mmHg 48%
    05:00 +5°C° 0 mm 1 mps 737 mmHg 48%
    06:00 +4°C° 0 mm 2 mps 736 mmHg 47%
    07:00 +6°C° 0 mm 2 mps 736 mmHg 44%
    08:00 +8°C° 0 mm 3 mps 736 mmHg 40%
    09:00 +10°C° 0 mm 3 mps 735 mmHg 35%
    10:00 +11°C° 0 mm 3 mps 734 mmHg 34%
    11:00 +12°C° 0 mm 4 mps 734 mmHg 34%
    12:00 +13°C° 0 mm 4 mps 733 mmHg 33%
    13:00 +13°C° 0 mm 4 mps 733 mmHg 33%
    14:00 +14°C° 0 mm 4 mps 732 mmHg 32%
    15:00 +14°C° 0 mm 4 mps 731 mmHg 32%
    16:00 +13°C° 0 mm 3 mps 731 mmHg 35%
    17:00 +12°C° 0 mm 3 mps 731 mmHg 37%
    18:00 +12°C° 0 mm 2 mps 731 mmHg 40%
    19:00 +10°C° 0 mm 2 mps 731 mmHg 41%
    20:00 +9°C° 0 mm 2 mps 732 mmHg 43%
    21:00 +9°C° 0 mm 2 mps 732 mmHg 44%
    22:00 +8°C° 0 mm 2 mps 732 mmHg 46%
    23:00 +8°C° 0 mm 2 mps 732 mmHg 47%

    Tomorrow, 24 March, Sunday

    Time Temperature Precipitation Wind Pressure Humidity
    00:00 +8°C° 0 mm 2 mps 732 mmHg 49%
    01:00 +8°C° 0 mm 2 mps 732 mmHg 49%
    02:00 +7°C° 0 mm 2 mps 731 mmHg 50%
    03:00 +7°C° 0 mm 2 mps 731 mmHg 50%
    04:00 +7°C° 0 mm 2 mps 731 mmHg 50%
    05:00 +7°C° 0 mm 2 mps 731 mmHg 49%
    06:00 +7°C° 0 mm 2 mps 731 mmHg 49%
    07:00 +9°C° 0 mm 2 mps 731 mmHg 45%
    08:00 +12°C° 0 mm 2 mps 731 mmHg 42%
    09:00 +13°C° 0 mm 2 mps 731 mmHg 39%
    10:00 +14°C° 0 mm 2 mps 731 mmHg 38%
    11:00 +15°C° 0 mm 2 mps 731 mmHg 37%
    12:00 +16°C° 0 mm 2 mps 732 mmHg 36%
    13:00 +16°C° 0 mm 2 mps 731 mmHg 36%
    14:00 +16°C° 0 mm 2 mps 731 mmHg 36%
    15:00 +16°C° 0 mm 2 mps 731 mmHg 36%
    16:00 +15°C° 0 mm 2 mps 731 mmHg 40%
    17:00 +13°C° 0 mm 2 mps 731 mmHg 44%
    18:00 +12°C° 0 mm 1 mps 732 mmHg 48%
    19:00 +12°C° 0.1 mm 1 mps 732 mmHg 49%
    20:00 +11°C° 0.1 mm 1 mps 733 mmHg 51%
    21:00 +10°C° 0.1 mm 2 mps 733 mmHg 53%
    22:00 +11°C° 0.2 mm 1 mps 733 mmHg 56%
    23:00 +10°C° 0.2 mm 1 mps 733 mmHg 58%

    Day after tomorrow, 25 March, Monday

    Time Temperature Precipitation Wind Pressure Humidity
    00:00 +10°C° 0.2 mm 1 mps 733 mmHg 60%
    01:00 +10°C° 0.2 mm 1 mps 733 mmHg 62%
    02:00 +10°C° 0.2 mm 1 mps 733 mmHg 63%
    03:00 +9°C° 0.2 mm 1 mps 733 mmHg 65%
    04:00 +9°C° 0.1 mm 1 mps 733 mmHg 66%
    05:00 +9°C° 0.1 mm 1 mps 733 mmHg 67%
    06:00 +9°C° 0.1 mm 1 mps 733 mmHg 68%
    07:00 +9°C° 0.1 mm 1 mps 733 mmHg 66%
    08:00 +9°C° 0.1 mm 2 mps 733 mmHg 64%
    09:00 +10°C° 0.1 mm 2 mps 733 mmHg 62%
    10:00 +10°C° 0.1 mm 2 mps 733 mmHg 64%
    11:00 +11°C° 0.1 mm 3 mps 733 mmHg 66%
    12:00 +11°C° 0.1 mm 3 mps 732 mmHg 68%
    13:00 +10°C° 0.3 mm 3 mps 732 mmHg 71%
    14:00 +10°C° 0.3 mm 3 mps 732 mmHg 74%
    15:00 +10°C° 0.3 mm 4 mps 732 mmHg 77%
    16:00 +9°C° 0.4 mm 3 mps 732 mmHg 80%
    17:00 +8°C° 0.4 mm 3 mps 732 mmHg 83%
    18:00 +7°C° 0.4 mm 3 mps 733 mmHg 86%
    19:00 +7°C° 0.3 mm 3 mps 733 mmHg 85%
    20:00 +7°C° 0.3 mm 3 mps 734 mmHg 85%
    21:00 +6°C° 0.3 mm 2 mps 734 mmHg 84%
    22:00 +6°C° 0.1 mm 2 mps 734 mmHg 85%
    23:00 +6°C° 0.1 mm 2 mps 734 mmHg 85%

    26 March, Tuesday

    Time Temperature Precipitation Wind Pressure Humidity
    00:00 +6°C° 0.1 mm 2 mps 734 mmHg 85%
    01:00 +7°C° 0.1 mm 1 mps 734 mmHg 85%
    02:00 +6°C° 0.1 mm 1 mps 734 mmHg 85%
    03:00 +6°C° 0.1 mm 1 mps 734 mmHg 85%
    04:00 +6°C° 0.1 mm 1 mps 735 mmHg 85%
    05:00 +6°C° 0.1 mm 1 mps 735 mmHg 86%
    06:00 +6°C° 0.1 mm 1 mps 735 mmHg 86%
    07:00 +6°C° 0.1 mm 2 mps 735 mmHg 83%
    08:00 +7°C° 0.1 mm 2 mps 736 mmHg 79%
    09:00 +8°C° 0.1 mm 2 mps 736 mmHg 75%
    10:00 +9°C° 0.1 mm 2 mps 735 mmHg 72%
    11:00 +10°C° 0.1 mm 3 mps 735 mmHg 69%
    12:00 +11°C° 0.1 mm 3 mps 734 mmHg 65%
    13:00 +11°C° 0.1 mm 3 mps 734 mmHg 66%
    14:00 +11°C° 0.1 mm 4 mps 734 mmHg 67%
    15:00 +11°C° 0.1 mm 4 mps 734 mmHg 68%
    16:00 +10°C° 0 mm 3 mps 734 mmHg 70%
    17:00 +10°C° 0 mm 2 mps 734 mmHg 72%
    18:00 +9°C° 0 mm 2 mps 734 mmHg 74%
    19:00 +10°C° 0 mm 1 mps 734 mmHg 76%
    20:00 +9°C° 0 mm 1 mps 734 mmHg 78%
    21:00 +8°C° 0 mm 1 mps 735 mmHg 79%
    22:00 +8°C° 0 mm 1 mps 734 mmHg 80%
    23:00 +7°C° 0 mm 1 mps 734 mmHg 82%

    27 March, Wednesday

    Time Temperature Precipitation Wind Pressure Humidity
    00:00 +7°C° 0 mm 1 mps 734 mmHg 83%
    01:00 +7°C° 0 mm 1 mps 733 mmHg 83%
    02:00 +6°C° 0 mm 1 mps 733 mmHg 83%
    03:00 +6°C° 0 mm 1 mps 733 mmHg 83%
    04:00 +6°C° 0 mm 1 mps 733 mmHg 80%
    05:00 +6°C° 0 mm 1 mps 732 mmHg 78%
    06:00 +5°C° 0 mm 2 mps 732 mmHg 75%
    07:00 +7°C° 0 mm 2 mps 732 mmHg 71%
    08:00 +9°C° 0 mm 3 mps 732 mmHg 66%
    09:00 +11°C° 0 mm 4 mps 732 mmHg 62%
    10:00 +12°C° 0 mm 4 mps 732 mmHg 58%
    11:00 +14°C° 0 mm 4 mps 732 mmHg 54%
    12:00 +15°C° 0 mm 4 mps 732 mmHg 51%
    13:00 +15°C° 0.1 mm 4 mps 732 mmHg 49%
    14:00 +17°C° 0.1 mm 3 mps 732 mmHg 47%
    15:00 +17°C° 0.1 mm 3 mps 732 mmHg 45%
    16:00 +16°C° 0.1 mm 2 mps 732 mmHg 48%
    17:00 +15°C° 0.1 mm 2 mps 732 mmHg 51%
    18:00 +14°C° 0.1 mm 1 mps 733 mmHg 54%
    19:00 +13°C° 0.1 mm 1 mps 733 mmHg 57%
    20:00 +13°C° 0.1 mm 2 mps 734 mmHg 59%
    21:00 +12°C° 0.1 mm 2 mps 734 mmHg 62%
    22:00 +12°C° 0.1 mm 2 mps 734 mmHg 67%
    23:00 +10°C° 0.1 mm 2 mps 734 mmHg 72%

    28 March, Thursday

    Time Temperature Precipitation Wind Pressure Humidity
    00:00 +10°C° 0.1 mm 1 mps 735 mmHg 76%
    01:00 +10°C° 0 mm 1 mps 735 mmHg 78%
    02:00 +9°C° 0 mm 1 mps 735 mmHg 79%
    03:00 +8°C° 0 mm 0 mps 735 mmHg 81%
    04:00 +7°C° 0 mm 0 mps 735 mmHg 80%
    05:00 +8°C° 0 mm 1 mps 736 mmHg 78%
    06:00 +8°C° 0 mm 1 mps 736 mmHg 77%
    07:00 +9°C° 0 mm 1 mps 736 mmHg 67%
    08:00 +10°C° 0 mm 2 mps 736 mmHg 57%
    09:00 +13°C° 0 mm 2 mps 737 mmHg 47%
    10:00 +13°C° 0.1 mm 2 mps 736 mmHg 46%
    11:00 +14°C° 0.1 mm 2 mps 736 mmHg 45%
    12:00 +13°C° 0.1 mm 3 mps 736 mmHg 44%
    13:00 +14°C° 0.2 mm 2 mps 736 mmHg 47%
    14:00 +13°C° 0.2 mm 2 mps 736 mmHg 50%
    15:00 +13°C° 0.2 mm 1 mps 736 mmHg 53%
    16:00 +12°C° 0.4 mm 1 mps 736 mmHg 58%
    17:00 +11°C° 0.4 mm 1 mps 737 mmHg 62%
    18:00 +10°C° 0.4 mm 1 mps 737 mmHg 67%
    19:00 +10°C° 0.6 mm 1 mps 738 mmHg 70%
    20:00 +8°C° 0.6 mm 0 mps 738 mmHg 73%
    21:00 +8°C° 0.6 mm 0 mps 739 mmHg 75%
    22:00 +7°C° 0.4 mm 0 mps 739 mmHg 77%
    23:00 +8°C° 0.4 mm 1 mps 739 mmHg 79%
    Show more